Showing default

DB-CHARMS-ND, 68455

Orbit data source: Space-Track

DB-CHARMS-ND, 68455 is a payload satellite owned by NearSpaceLaunch (US) in SSO that was launched on Mon, 30 Mar 2026 UTC via an FALCON 9 launch vehicle from the Air Force Western Test Range (AFWTR). Payload-class satellites include a variety of spacecraft equipped with specific instruments for various scientific and technological missions. These include communications satellites like Starlink; space stations such as the ISS; scientific satellites like the Hubble; Earth observation satellites from companies like Planet Labs, Umbra, and HawkEye 360; GPS; miniature CubeSats for education and research; and military/defense satellites.

Loading next visibility...
Identifier
68455, 2026-067AR
Orbit
SSO
Country
Flag of USUS
Related business
Manufacturer
NearSpaceLaunch
Mission
Operational spacecraft
Bus & Motor
THINSAT 0.5U, Unknown motor
Mass
0.5 kg wet, 0.5 kg dry
Launch date (UTC)
2026-03-30 (3 months ago)
Launch vehicle
FALCON 9
Launch site
Air Force Western Test Range (AFWTR)
Object type
Payload
Rocket body
Debris
Shape & HBR
Unknown shape, 0.2 m
Radar Cross Section
Medium (>0.1 m² and <1 m²)

Expand to show TLE details & history
Last TLE update: 2 days ago

TLE from 2 days ago
0 DB-CHARMS-ND
1 68455U 26067AR  26171.42311189  .00004125  00000-0  20960-3 0  9997
2 68455  97.4579 129.7556 0007311  62.8859 297.3119 15.17402581 12421
Epoch: 2026-06-20T10:09Z
TLE epoch observation values (Epoch: 2026-06-20T10:09:16.867Z)
Latitude
-0.00006°
Longitude
68.79738°
Altitude
514.47 km
Speed
7.608 km/s
True Right ascension
08h 39m 01s
True Declination
0° 00' 00"
Sunlit
Object was in daylight at epoch
Visualization orbit readout
Latitude
Unknown
Longitude
Unknown
Altitude
Unknown
Speed
Unknown
Apparent Right ascension
Unknown
Apparent Declination
Unknown
Sunlit
N/A
Visualization observer readout
Local Sidereal Time
10:39:03
Azimuth
Unknown
Elevation
Unknown
Doppler factor
Unknown
Orbital elements
Apogee altitude
515.702 km
Perigee altitude
505.629 km
Semi-major axis
6,888.803 km
Eccentricity
0.00073
Inclination
97.4579°
RAAN
129.7556°
Arg. of periapsis
62.8859°
True anomaly
297.23743°
Mean anomaly
297.3119°
Eccentric anomaly
297.27467°
Mean motion
3.79601 °/min
Orbital period
94.84 mins
BSTAR
0.0002096
Loading maneuver chart data...
Computing Atmospheric mass density...
Loading historical data...
Loading historical data...
Loading historical data...
Loading historical data...
Loading historical data...
Loading historical data...
Loading historical data...

Documentation

Showing up to 5 results
|